Weather History for Independence, KS

Change the Weather History Date:

Friday, May 10, 2013

  Actual Average (KCFV) Record (KCFV)
Temperature  
Mean Temperature 58 °F -  
Max Temperature 64 °F 74 °F 88 °F (2005)
Min Temperature 51 °F 52 °F 39 °F (1997)
Degree Days  
Heating Degree Days 8    
Growing Degree Days 8 (Base 50)    
Moisture  
Dew Point 54 °F    
Average Humidity 80    
Maximum Humidity 100    
Minimum Humidity 64    
Precipitation  
Precipitation 0.00 in - - ()
Sea Level Pressure  
Sea Level Pressure 30.01 in    
Wind  
Wind Speed 9 mph (North)    
Max Wind Speed 17 mph    
Max Gust Speed 25 mph    
Visibility 10 miles    
Events      
Averages and records for this station are not official NWS values.
T = Trace of Precipitation, MM = Missing Value Source: NWS Daily Summary

Daily Weather History Graph

Daily Weather History Graph

Search for Another Location

Airport:

Trip Planner

Search our weather history database for the weather conditions in past years. The results will help you decide how hot, cold, wet, or windy it might be!

Date:

Astronomy

May. 10, 2013 Rise Set
Actual Time 6:18 AM CDT 8:20 PM CDT
Civil Twilight 5:50 AM CDT 8:49 PM CDT
Nautical Twilight 5:15 AM CDT 9:24 PM CDT
Astronomical Twilight 4:37 AM CDT 10:02 PM CDT
Moon 6:44 AM CDT (5/10) 9:10 PM CDT (5/10)
Length of Visible Light 14h 59m
Length of Day
14h 01m
New Moon, 0% of the Moon is Illuminated
May 10
New Moon
May 17
First Quarter
May 24
Full
May 31
Last Quarter
Jun 8
New

Hourly Weather History & Observations

Time (CDT) Temp. Dew Point Humidity Pressure Visibility Wind Dir Wind Speed Gust Speed Precip Events Conditions
12:15 AM 62.6 °F 59.0 °F 88% 29.95 in 10.0 mi NNW 8.1 mph - N/A   Clear
12:55 AM 60.8 °F 57.2 °F 88% 29.94 in 10.0 mi NW 8.1 mph - N/A   Clear
1:15 AM 60.8 °F 55.4 °F 82% 29.94 in 10.0 mi NW 8.1 mph - N/A   Clear
1:35 AM 60.8 °F 55.4 °F 82% 29.94 in 10.0 mi NW 8.1 mph - N/A   Clear
1:55 AM 59.0 °F 55.4 °F 88% 29.95 in 10.0 mi NNW 6.9 mph - N/A   Clear
2:15 AM 59.0 °F 55.4 °F 88% 29.94 in 10.0 mi NNW 8.1 mph - N/A   Clear
2:35 AM 59.0 °F 55.4 °F 88% 29.94 in 10.0 mi NNW 9.2 mph - N/A   Clear
2:55 AM 59.0 °F 55.4 °F 88% 29.95 in 10.0 mi NNW 8.1 mph - N/A   Clear
3:15 AM 59.0 °F 55.4 °F 88% 29.95 in 10.0 mi North 4.6 mph - N/A   Mostly Cloudy
3:35 AM 59.0 °F 55.4 °F 88% 29.95 in 10.0 mi North 9.2 mph - N/A   Overcast
3:55 AM 59.0 °F 55.4 °F 88% 29.95 in 10.0 mi NNW 8.1 mph - N/A   Scattered Clouds
4:15 AM 57.2 °F 53.6 °F 88% 29.95 in 10.0 mi NNW 9.2 mph - N/A   Scattered Clouds
4:35 AM 57.2 °F 53.6 °F 88% 29.95 in 10.0 mi NNW 10.4 mph - N/A   Clear
4:55 AM 57.2 °F 53.6 °F 88% 29.95 in 10.0 mi NNW 11.5 mph - N/A   Clear
5:15 AM 55.4 °F 53.6 °F 94% 29.95 in 10.0 mi NNW 10.4 mph - N/A   Clear
5:35 AM 55.4 °F 53.6 °F 94% 29.95 in 7.0 mi NNW 9.2 mph - N/A   Clear
5:55 AM 55.4 °F 53.6 °F 94% 29.95 in 7.0 mi NNW 9.2 mph - N/A   Clear
6:15 AM 55.4 °F 53.6 °F 94% 29.95 in 7.0 mi North 11.5 mph - N/A   Clear
6:35 AM 55.4 °F 53.6 °F 94% 29.96 in 7.0 mi North 8.1 mph - N/A   Scattered Clouds
7:15 AM 55.4 °F 53.6 °F 94% 29.97 in 5.0 mi North 8.1 mph - N/A   Scattered Clouds
7:35 AM 57.2 °F 53.6 °F 88% 29.98 in 7.0 mi North 8.1 mph - N/A   Clear
8:15 AM 59.0 °F 55.4 °F 88% 30.00 in 10.0 mi NNW 11.5 mph - N/A   Scattered Clouds
8:35 AM 59.0 °F 55.4 °F 88% 30.01 in 10.0 mi North 12.7 mph - N/A   Mostly Cloudy
8:55 AM 59.0 °F 55.4 °F 88% 30.02 in 7.0 mi North 10.4 mph 18.4 mph N/A   Overcast
9:15 AM 59.0 °F 55.4 °F 88% 30.03 in 10.0 mi North 12.7 mph - N/A   Overcast
9:35 AM 59.0 °F 53.6 °F 82% 30.02 in 10.0 mi North 10.4 mph - N/A   Overcast
9:55 AM 60.8 °F 55.4 °F 82% 30.02 in 10.0 mi North 6.9 mph - N/A   Mostly Cloudy
10:15 AM 60.8 °F 55.4 °F 82% 30.04 in 10.0 mi North 8.1 mph - N/A   Mostly Cloudy
10:35 AM 62.6 °F 53.6 °F 72% 30.04 in 10.0 mi North 8.1 mph - N/A   Overcast
10:55 AM 62.6 °F 55.4 °F 77% 30.05 in 10.0 mi North 9.2 mph - N/A   Overcast
11:15 AM 62.6 °F 55.4 °F 77% 30.05 in 10.0 mi North 9.2 mph - N/A   Overcast
11:35 AM 64.4 °F 55.4 °F 73% 30.06 in 10.0 mi North 12.7 mph 16.1 mph N/A   Overcast
12:15 PM 64.4 °F 55.4 °F 73% 30.04 in 10.0 mi North 11.5 mph 18.4 mph N/A   Mostly Cloudy
12:35 PM 64.4 °F 55.4 °F 73% 30.04 in 10.0 mi North 12.7 mph 17.3 mph N/A   Scattered Clouds
12:55 PM 64.4 °F 53.6 °F 68% 30.03 in 10.0 mi North 13.8 mph - N/A   Mostly Cloudy
1:15 PM 62.6 °F 55.4 °F 77% 30.03 in 10.0 mi North 12.7 mph - N/A   Overcast
1:35 PM 62.6 °F 53.6 °F 72% 30.03 in 10.0 mi North 13.8 mph - N/A   Overcast
1:55 PM 64.4 °F 53.6 °F 68% 30.03 in 10.0 mi North 11.5 mph - N/A   Overcast
2:15 PM 64.4 °F 51.8 °F 64% 30.03 in 10.0 mi North 17.3 mph 23.0 mph N/A   Mostly Cloudy
2:35 PM 64.4 °F 51.8 °F 64% 30.03 in 10.0 mi North 13.8 mph 19.6 mph N/A   Overcast
2:55 PM 64.4 °F 53.6 °F 68% 30.04 in 10.0 mi North 13.8 mph 20.7 mph N/A   Mostly Cloudy
3:15 PM 64.4 °F 51.8 °F 64% 30.04 in 10.0 mi North 16.1 mph 25.3 mph N/A   Scattered Clouds
3:35 PM 64.4 °F 51.8 °F 64% 30.05 in 10.0 mi North 16.1 mph - N/A   Scattered Clouds
3:55 PM 62.6 °F 51.8 °F 68% 30.05 in 10.0 mi North 12.7 mph 18.4 mph N/A   Mostly Cloudy
4:15 PM 64.4 °F 53.6 °F 68% 30.05 in 10.0 mi NNE 11.5 mph - N/A   Overcast
4:35 PM 62.6 °F 51.8 °F 68% 30.05 in 10.0 mi North 12.7 mph - N/A   Overcast
4:55 PM 62.6 °F 53.6 °F 72% 30.04 in 10.0 mi North 8.1 mph - N/A   Overcast
5:15 PM 64.4 °F 53.6 °F 68% 30.03 in 10.0 mi North 10.4 mph - N/A   Overcast
5:35 PM 64.4 °F 53.6 °F 68% 30.03 in 10.0 mi North 12.7 mph - N/A   Mostly Cloudy
5:55 PM 64.4 °F 53.6 °F 68% 30.03 in 10.0 mi North 15.0 mph 18.4 mph N/A   Mostly Cloudy
6:15 PM 64.4 °F 51.8 °F 64% 30.02 in 10.0 mi North 10.4 mph - N/A   Mostly Cloudy
6:35 PM 62.6 °F 53.6 °F 72% 30.03 in 10.0 mi NNE 6.9 mph - N/A   Scattered Clouds
6:55 PM 62.6 °F 51.8 °F 68% 30.03 in 10.0 mi NNE 9.2 mph - N/A   Clear
7:15 PM 62.6 °F 51.8 °F 68% 30.03 in 10.0 mi North 6.9 mph - N/A   Clear
7:35 PM 62.6 °F 51.8 °F 68% 30.03 in 10.0 mi NNE 4.6 mph - N/A   Clear
7:55 PM 60.8 °F 53.6 °F 77% 30.04 in 10.0 mi Calm Calm - N/A   Clear
8:15 PM 60.8 °F 51.8 °F 72% 30.04 in 10.0 mi Calm Calm - N/A   Clear
8:35 PM 60.8 °F 51.8 °F 72% 30.05 in 10.0 mi ENE 3.5 mph - N/A   Clear
8:55 PM 60.8 °F 51.8 °F 72% 30.05 in 10.0 mi East 3.5 mph - N/A   Clear
9:15 PM 59.0 °F 51.8 °F 77% 30.06 in 10.0 mi East 3.5 mph - N/A   Scattered Clouds
9:35 PM 59.0 °F 51.8 °F 77% 30.07 in 10.0 mi East 3.5 mph - N/A   Scattered Clouds
9:55 PM 57.2 °F 51.8 °F 82% 30.07 in 10.0 mi Calm Calm - N/A   Clear
10:15 PM 55.4 °F 51.8 °F 88% 30.07 in 10.0 mi Calm Calm - N/A   Clear
10:35 PM 55.4 °F 51.8 °F 88% 30.07 in 10.0 mi Calm Calm - N/A   Clear
10:55 PM 55.4 °F 51.8 °F 88% 30.07 in 10.0 mi Calm Calm - N/A   Clear
11:15 PM 53.6 °F 51.8 °F 94% 30.08 in 10.0 mi Calm Calm - N/A   Clear
11:35 PM 51.8 °F 50.0 °F 94% 30.09 in 10.0 mi SW 3.5 mph - N/A   Clear
11:55 PM 51.8 °F 51.8 °F 100% 30.10 in 7.0 mi Calm Calm - N/A   Clear